Flag for U.S.A. Weather past 2 weeks in Gainesville, Florida, U.S.A.

Now
54 °F

Light rain. Passing clouds.


Feels Like: 53 °F
Forecast: 46 / 60 °F
Wind: 6 mph from Southwest

Location: Gainesville Regional Airport

Current Time: Jan 26, 2015 at 6:06:00 AM

Latest Report: Jan 26, 2015 at 4:53 AM


Visibility: 10 mi

Pressure: 29.80 "Hg

Humidity: 97%

Dew point: 53 °F

Location of GainesvilleLocation

Historic Weather in Gainesville — Graph

°F

Gainesville temperature yesterday

Maximum temperature yesterday: 62 °F (at 3:53 PM)
Minimum temperature yesterday: 33 °F (at 7:53 AM)
Average temperature yesterday: 49 °F

Past Weeks' High & Low Weather Summary

 TemperatureHumidityPressure
High74 °F (Jan 21, 3:53 PM)100% (Jan 11, 9:04 PM)30.42 "Hg (Jan 11, 9:04 PM)
Low32 °F (Jan 19, 6:53 AM)23% (Jan 19, 2:53 PM)29.74 "Hg (Jan 24, 3:53 AM)
Average55 °F85%30.12 "Hg
* Reported Jan 11 4:53 AM — Jan 26 4:53 AM, Gainesville, Weather by CustomWeather, © 2014

Note: Actual official high and low records may vary slightly from our data, if they occured in-between our weather recording intervals... More about our weather records

Advertising

Gainesville weather history for previous 24 hours

 ConditionsComfort  
Time TempWeatherWind HumidityBarometerVisibility
4:53 AM
Jan 26
54 °FLight rain. Passing clouds.6 mph97%29.80 "Hg10 mi
3:53 AM54 °FLight rain. Mostly cloudy.7 mph93%29.83 "Hg10 mi
2:53 AM54 °FLight rain. Mostly cloudy.7 mph97%29.83 "Hg10 mi
1:53 AM53 °FPassing clouds.7 mph89%29.84 "Hg10 mi
12:53 AM52 °FClear.8 mph89%29.87 "Hg10 mi
11:53 PM
Jan 25
51 °FClear.5 mph83%29.90 "Hg10 mi
10:53 PM49 °FClear.3 mph84%29.92 "Hg10 mi
9:53 PM50 °FClear.3 mph80%29.95 "Hg10 mi
8:53 PM50 °FClear.7 mph80%29.95 "Hg10 mi
7:53 PM53 °FClear.8 mph72%29.96 "Hg10 mi
6:53 PM55 °FClear.6 mph67%29.96 "Hg10 mi
5:53 PM58 °FSunny.10 mph58%29.96 "Hg10 mi
4:53 PM61 °FSunny.10 mph44%29.95 "Hg10 mi
3:53 PM62 °FSunny.12 mph41%29.95 "Hg10 mi
2:53 PM61 °FSunny.12 mph38%29.96 "Hg10 mi
1:53 PM60 °FSunny.8 mph39%29.99 "Hg10 mi
12:53 PM58 °FSunny.7 mph43%30.03 "Hg10 mi
11:53 AM56 °FSunny.6 mph42%30.06 "Hg10 mi
10:53 AM53 °FSunny.No wind48%30.09 "Hg10 mi
9:53 AM50 °FSunny.No wind57%30.10 "Hg10 mi
8:53 AM43 °FSunny.6 mph76%30.10 "Hg10 mi
7:53 AM33 °FSunny.No wind96%30.09 "Hg10 mi
6:53 AM37 °FClear.No wind86%30.08 "Hg10 mi
Weather by CustomWeather, © 2014

See weather overviewHow to use our weather pages